When you browse on this site, cookies collect data to enhance your experience and personalize the content and advertising you see.
Visit our Privacy Policy to learn more. By continuing to use the site, you agree to this use of cookies and data.
  • In Czech Republic
  • List of Countries
  • For 7 days
  • Water Temperature
  • Satellite Maps
  • Weather Map
  • Weather Widgets
  • user-avatar
    Login

    Hourly Weather Melbourne

    Today, 17 December, Monday

    Time Temperature Precipitation Wind Pressure Humidity
    00:00 +16°C° 0 mm 1 mps 755 mmHg 90%
    01:00 +16°C° 0 mm 1 mps 755 mmHg 91%
    02:00 +16°C° 0 mm 1 mps 755 mmHg 91%
    03:00 +16°C° 0 mm 1 mps 755 mmHg 91%
    04:00 +16°C° 0 mm 2 mps 755 mmHg 93%
    05:00 +17°C° 0 mm 2 mps 755 mmHg 89%
    06:00 +18°C° 0 mm 2 mps 756 mmHg 86%
    07:00 +19°C° 0 mm 2 mps 756 mmHg 83%
    08:00 +20°C° 0 mm 3 mps 756 mmHg 75%
    09:00 +22°C° 0 mm 3 mps 756 mmHg 66%
    10:00 +25°C° 0 mm 3 mps 756 mmHg 58%
    11:00 +25°C° 0 mm 3 mps 757 mmHg 59%
    12:00 +25°C° 0 mm 4 mps 757 mmHg 59%
    13:00 +25°C° 0 mm 4 mps 757 mmHg 60%
    14:00 +25°C° 0 mm 4 mps 757 mmHg 61%
    15:00 +25°C° 0 mm 4 mps 757 mmHg 62%
    16:00 +23°C° 0 mm 4 mps 757 mmHg 63%
    17:00 +22°C° 0 mm 4 mps 757 mmHg 68%
    18:00 +21°C° 0 mm 4 mps 758 mmHg 73%
    19:00 +20°C° 0 mm 4 mps 758 mmHg 78%
    20:00 +19°C° 0 mm 4 mps 759 mmHg 81%
    21:00 +18°C° 0 mm 3 mps 759 mmHg 83%
    22:00 +17°C° 0 mm 3 mps 760 mmHg 86%
    23:00 +17°C° 0 mm 3 mps 759 mmHg 88%

    Tomorrow, 18 December, Tuesday

    Time Temperature Precipitation Wind Pressure Humidity
    00:00 +16°C° 0 mm 2 mps 759 mmHg 89%
    01:00 +16°C° 0 mm 2 mps 759 mmHg 90%
    02:00 +16°C° 0 mm 2 mps 759 mmHg 90%
    03:00 +15°C° 0 mm 2 mps 759 mmHg 91%
    04:00 +15°C° 0 mm 2 mps 759 mmHg 91%
    05:00 +16°C° 0 mm 2 mps 759 mmHg 88%
    06:00 +16°C° 0 mm 2 mps 760 mmHg 84%
    07:00 +17°C° 0 mm 2 mps 760 mmHg 81%
    08:00 +18°C° 0 mm 2 mps 760 mmHg 73%
    09:00 +20°C° 0 mm 2 mps 760 mmHg 65%
    10:00 +23°C° 0 mm 2 mps 760 mmHg 57%
    11:00 +24°C° 0 mm 3 mps 760 mmHg 54%
    12:00 +25°C° 0 mm 3 mps 759 mmHg 50%
    13:00 +26°C° 0 mm 4 mps 759 mmHg 47%
    14:00 +26°C° 0 mm 4 mps 759 mmHg 47%
    15:00 +26°C° 0 mm 4 mps 759 mmHg 47%
    16:00 +26°C° 0 mm 4 mps 758 mmHg 47%
    17:00 +23°C° 0 mm 4 mps 759 mmHg 53%
    18:00 +22°C° 0 mm 3 mps 759 mmHg 59%
    19:00 +21°C° 0 mm 3 mps 759 mmHg 65%
    20:00 +20°C° 0 mm 3 mps 759 mmHg 70%
    21:00 +19°C° 0 mm 2 mps 759 mmHg 75%
    22:00 +18°C° 0 mm 2 mps 760 mmHg 81%
    23:00 +18°C° 0 mm 2 mps 759 mmHg 82%

    Day after tomorrow, 19 December, Wednesday

    Time Temperature Precipitation Wind Pressure Humidity
    00:00 +18°C° 0 mm 2 mps 759 mmHg 82%
    01:00 +18°C° 0 mm 2 mps 758 mmHg 83%
    02:00 +18°C° 0 mm 2 mps 758 mmHg 84%
    03:00 +18°C° 0 mm 2 mps 758 mmHg 84%
    04:00 +17°C° 0 mm 2 mps 757 mmHg 84%
    05:00 +19°C° 0 mm 1 mps 757 mmHg 81%
    06:00 +20°C° 0 mm 1 mps 757 mmHg 78%
    07:00 +21°C° 0 mm 1 mps 757 mmHg 74%
    08:00 +22°C° 0.1 mm 1 mps 757 mmHg 74%
    09:00 +23°C° 0.1 mm 1 mps 757 mmHg 73%
    10:00 +24°C° 0.1 mm 2 mps 757 mmHg 73%
    11:00 +27°C° 0 mm 2 mps 756 mmHg 61%
    12:00 +30°C° 0 mm 1 mps 756 mmHg 49%
    13:00 +33°C° 0 mm 1 mps 755 mmHg 38%
    14:00 +31°C° 0.3 mm 1 mps 755 mmHg 46%
    15:00 +29°C° 0.3 mm 1 mps 754 mmHg 55%
    16:00 +28°C° 0.3 mm 1 mps 754 mmHg 64%
    17:00 +27°C° 0 mm 2 mps 754 mmHg 67%
    18:00 +26°C° 0 mm 2 mps 754 mmHg 69%
    19:00 +25°C° 0 mm 3 mps 754 mmHg 71%
    20:00 +24°C° 0.1 mm 2 mps 754 mmHg 76%
    21:00 +23°C° 0.1 mm 2 mps 753 mmHg 80%
    22:00 +21°C° 0.1 mm 2 mps 753 mmHg 85%
    23:00 +21°C° 0.1 mm 2 mps 752 mmHg 87%

    20 December, Thursday

    Time Temperature Precipitation Wind Pressure Humidity
    00:00 +20°C° 0.1 mm 2 mps 752 mmHg 89%
    01:00 +20°C° 0.1 mm 2 mps 751 mmHg 91%
    02:00 +19°C° 0.1 mm 2 mps 751 mmHg 92%
    03:00 +19°C° 0.1 mm 2 mps 751 mmHg 94%
    04:00 +19°C° 0.1 mm 2 mps 751 mmHg 95%
    05:00 +19°C° 0.1 mm 2 mps 751 mmHg 94%
    06:00 +19°C° 0.1 mm 2 mps 751 mmHg 92%
    07:00 +20°C° 0.1 mm 3 mps 751 mmHg 91%
    08:00 +20°C° 0 mm 3 mps 751 mmHg 89%
    09:00 +21°C° 0 mm 3 mps 751 mmHg 86%
    10:00 +21°C° 0 mm 4 mps 752 mmHg 84%
    11:00 +21°C° 0 mm 4 mps 752 mmHg 83%
    12:00 +21°C° 0 mm 5 mps 752 mmHg 82%
    13:00 +22°C° 0 mm 5 mps 752 mmHg 80%
    14:00 +21°C° 0.1 mm 5 mps 752 mmHg 83%
    15:00 +20°C° 0.1 mm 5 mps 753 mmHg 85%
    16:00 +19°C° 0.1 mm 5 mps 753 mmHg 87%
    17:00 +17°C° 0 mm 5 mps 754 mmHg 86%
    18:00 +17°C° 0 mm 5 mps 755 mmHg 86%
    19:00 +17°C° 0 mm 4 mps 755 mmHg 85%
    20:00 +17°C° 0 mm 4 mps 756 mmHg 86%
    21:00 +17°C° 0 mm 4 mps 756 mmHg 86%
    22:00 +15°C° 0 mm 4 mps 757 mmHg 87%
    23:00 +15°C° 0.1 mm 4 mps 756 mmHg 87%

    21 December, Friday

    Time Temperature Precipitation Wind Pressure Humidity
    00:00 +15°C° 0.1 mm 4 mps 756 mmHg 87%
    01:00 +15°C° 0.1 mm 4 mps 756 mmHg 88%
    02:00 +15°C° 0.1 mm 4 mps 756 mmHg 88%
    03:00 +15°C° 0.1 mm 4 mps 756 mmHg 88%
    04:00 +14°C° 0.1 mm 4 mps 756 mmHg 89%
    05:00 +15°C° 0.1 mm 4 mps 756 mmHg 88%
    06:00 +15°C° 0.1 mm 4 mps 756 mmHg 86%
    07:00 +15°C° 0.1 mm 4 mps 757 mmHg 85%
    08:00 +17°C° 0.1 mm 4 mps 757 mmHg 82%
    09:00 +17°C° 0.1 mm 4 mps 757 mmHg 79%
    10:00 +18°C° 0.1 mm 4 mps 757 mmHg 76%
    11:00 +18°C° 0.1 mm 4 mps 757 mmHg 74%
    12:00 +19°C° 0.1 mm 4 mps 757 mmHg 72%
    13:00 +19°C° 0.1 mm 4 mps 756 mmHg 69%
    14:00 +19°C° 0.1 mm 5 mps 756 mmHg 69%
    15:00 +19°C° 0.1 mm 5 mps 756 mmHg 69%
    16:00 +19°C° 0.1 mm 5 mps 756 mmHg 69%
    17:00 +17°C° 0.1 mm 5 mps 757 mmHg 72%
    18:00 +16°C° 0.1 mm 5 mps 757 mmHg 75%
    19:00 +16°C° 0.1 mm 5 mps 758 mmHg 78%
    20:00 +15°C° 0.1 mm 4 mps 758 mmHg 81%
    21:00 +15°C° 0.1 mm 4 mps 759 mmHg 84%
    22:00 +14°C° 0.1 mm 4 mps 759 mmHg 86%
    23:00 +14°C° 0.1 mm 4 mps 759 mmHg 87%

    22 December, Saturday

    Time Temperature Precipitation Wind Pressure Humidity
    00:00 +14°C° 0.1 mm 4 mps 759 mmHg 88%
    01:00 +13°C° 0.1 mm 4 mps 759 mmHg 89%
    02:00 +13°C° 0.1 mm 4 mps 759 mmHg 89%
    03:00 +13°C° 0.1 mm 4 mps 759 mmHg 89%
    04:00 +13°C° 0.1 mm 3 mps 759 mmHg 89%
    05:00 +13°C° 0.1 mm 4 mps 760 mmHg 87%
    06:00 +14°C° 0.1 mm 4 mps 760 mmHg 85%
    07:00 +14°C° 0.1 mm 4 mps 761 mmHg 82%
    08:00 +15°C° 0.1 mm 4 mps 761 mmHg 76%
    09:00 +17°C° 0.1 mm 4 mps 761 mmHg 69%
    10:00 +17°C° 0.1 mm 5 mps 761 mmHg 63%
    11:00 +19°C° 0 mm 5 mps 761 mmHg 58%
    12:00 +20°C° 0 mm 5 mps 761 mmHg 53%
    13:00 +21°C° 0 mm 5 mps 761 mmHg 49%
    14:00 +21°C° 0 mm 5 mps 760 mmHg 49%
    15:00 +21°C° 0 mm 5 mps 760 mmHg 49%
    16:00 +21°C° 0 mm 5 mps 760 mmHg 49%
    17:00 +20°C° 0 mm 5 mps 761 mmHg 53%
    18:00 +18°C° 0 mm 4 mps 761 mmHg 58%
    19:00 +17°C° 0 mm 4 mps 762 mmHg 63%
    20:00 +16°C° 0 mm 3 mps 762 mmHg 70%
    21:00 +14°C° 0 mm 3 mps 763 mmHg 76%
    22:00 +14°C° 0 mm 2 mps 763 mmHg 83%
    23:00 +13°C° 0 mm 2 mps 763 mmHg 86%
    Show more